Monterey, CA

9:17 AM PDT on March 26, 2017 (GMT -0700)
Monterey Peninsula

Weather History for KMRY - November, 2011

Change the Weather History Date:

Saturday, November 12, 2011

  Actual Average Record
Temperature  
Mean Temperature 55 °F 55 °F  
Max Temperature 61 °F 64 °F 73 °F (2016)
Min Temperature 49 °F 46 °F 36 °F (2000)
Degree Days  
Heating Degree Days 10    
Month to date heating degree days 128  
Since 1 July heating degree days 686  
Cooling Degree Days 0    
Month to date cooling degree days 0  
Year to date cooling degree days 33  
Growing Degree Days 4 (Base 50)    
Moisture  
Dew Point 48 °F    
Average Humidity 75    
Maximum Humidity 89    
Minimum Humidity 60    
Precipitation  
Precipitation 0.00 in - 0.95 in (2001)
Month to date precipitation 0.72  
Year to date precipitation 15.79  
Since 1 July precipitation 3.00  
Sea Level Pressure  
Sea Level Pressure 29.90 in    
Wind  
Wind Speed 3 mph (NE)    
Max Wind Speed 9 mph    
Max Gust Speed 12 mph    
Visibility 10 miles    
Events      
T = Trace of Precipitation, MM = Missing Value Source: NWS Daily Summary

Daily Weather History Graph

Daily Weather History Graph

Search for Another Location

Airport or City:

Trip Planner

Search our weather history database for the weather conditions in past years. The results will help you decide how hot, cold, wet, or windy it might be!

Date:

Astronomy

Nov. 12, 2011 Rise Set
Actual Time 6:41 AM PST 5:00 PM PST
Civil Twilight 6:14 AM PST 5:28 PM PST
Nautical Twilight 5:43 AM PST 5:59 PM PST
Astronomical Twilight 5:12 AM PST 6:29 PM PST
Moon 6:24 PM PST (11/12) 8:25 AM PST (11/12)
Length of Visible Light 11h 13m
Length of Day
10h 18m
Waning Gibbous, 96% of the Moon is Illuminated
Nov 12
Waning Gibbous
Nov 18
Last Quarter
Nov 24
New
Dec 2
First Quarter
Dec 10
Full

Hourly Weather History & Observations

Time (PST) Temp. Dew Point Humidity Pressure Visibility Wind Dir Wind Speed Gust Speed Precip Events Conditions
12:54 AM 52.0 °F 46.9 °F 83% 29.83 in 10.0 mi Calm Calm - N/A   Overcast
1:54 AM 51.8 °F 46.4 °F 82% 29.80 in 10.0 mi Calm Calm - N/A   Overcast
2:54 AM 51.1 °F 48.0 °F 89% 29.84 in 10.0 mi Calm Calm - N/A   Overcast
4:54 AM 52.0 °F 48.0 °F 86% 29.83 in 10.0 mi Calm Calm - N/A   Overcast
5:54 AM 48.9 °F 45.0 °F 86% 29.83 in 10.0 mi Calm Calm - N/A   Clear
6:15 AM 50.0 °F 46.4 °F 87% 29.81 in 10.0 mi Calm Calm - N/A   Mostly Cloudy
6:54 AM 50.0 °F 46.4 °F 87% 29.84 in 10.0 mi Calm Calm - N/A   Overcast
7:41 AM 51.8 °F 46.4 °F 82% 29.86 in 10.0 mi NNE 3.5 mph - N/A   Overcast
7:54 AM 51.1 °F 46.9 °F 86% 29.91 in 10.0 mi Calm Calm - N/A   Overcast
8:50 AM 53.6 °F 48.2 °F 82% 29.88 in 10.0 mi East 5.8 mph - N/A   Overcast
8:54 AM 53.1 °F 48.0 °F 83% 29.92 in 10.0 mi East 5.8 mph - N/A   Overcast
9:24 AM 53.6 °F 48.2 °F 82% 29.89 in 10.0 mi East 4.6 mph - N/A   Overcast
9:54 AM 55.0 °F 48.9 °F 80% 29.94 in 10.0 mi East 5.8 mph - N/A   Overcast
10:54 AM 59.0 °F 48.0 °F 67% 29.94 in 10.0 mi ENE 4.6 mph - N/A   Scattered Clouds
11:29 AM 57.2 °F 48.2 °F 72% 29.89 in 10.0 mi Variable 6.9 mph - N/A   Mostly Cloudy
11:54 AM 59.0 °F 48.0 °F 67% 29.93 in 10.0 mi NNW 3.5 mph - N/A   Mostly Cloudy
12:05 PM 60.8 °F 48.2 °F 63% 29.89 in 10.0 mi NW 3.5 mph - N/A   Mostly Cloudy
12:54 PM 60.1 °F 48.0 °F 64% 29.92 in 10.0 mi NNW 5.8 mph - N/A   Mostly Cloudy
1:54 PM 61.0 °F 46.9 °F 60% 29.91 in 10.0 mi NNE 4.6 mph - N/A   Overcast
2:54 PM 57.9 °F 48.0 °F 70% 29.90 in 10.0 mi NW 5.8 mph - N/A   Overcast
3:54 PM 55.9 °F 50.0 °F 80% 29.92 in 9.0 mi WNW 6.9 mph - N/A   Overcast
4:54 PM 55.9 °F 50.0 °F 80% 29.93 in 10.0 mi WNW 3.5 mph - N/A   Overcast
5:50 PM 55.4 °F 50.0 °F 82% 29.91 in 10.0 mi Calm Calm - N/A   Overcast
5:54 PM 55.4 °F 50.0 °F 82% 29.91 in 10.0 mi Calm Calm - N/A   Overcast
6:54 PM 55.0 °F 51.1 °F 86% 29.94 in 10.0 mi East 3.5 mph - N/A   Overcast
7:54 PM 54.0 °F 48.9 °F 83% 29.95 in 10.0 mi East 4.6 mph - N/A   Mostly Cloudy
8:54 PM 52.0 °F 46.9 °F 83% 29.97 in 10.0 mi East 4.6 mph - N/A   Scattered Clouds
9:54 PM 51.1 °F 46.0 °F 83% 29.98 in 10.0 mi ENE 3.5 mph - N/A   Clear
10:54 PM 50.0 °F 45.0 °F 83% 29.99 in 10.0 mi East 5.8 mph - N/A   Clear
11:54 PM 48.2 °F 44.6 °F 87% 29.95 in 10.0 mi East 3.5 mph - N/A   Clear